Wind_Speed
28 29 29 29 30 30 30 30 31 31 31 31 32 32 32 32 32 32 32 33 33 34 35 35 36 36 37 37 37 38 38 39 40 40 41 41 42 43 43 44 44 45 45
30 30 31 31 31 31 31 32 32 32 33 33 33 33 33 33 33 33 33 33 34 35 36 36 37 37 38 38 39 39 40 40 41 42 42 43 43 44 44 45 45 46 47
31 31 32 32 32 32 33 33 33 33 33 33 33 33 33 33 34 34 34 35 35 36 36 37 37 38 38 39 40 40 41 41 42 43 43 44 44 45 45 46 46 47 48
32 32 32 33 33 34 34 34 34 34 34 34 34 34 34 34 35 35 35 36 36 36 37 37 38 39 39 40 41 41 42 42 43 43 44 45 45 46 46 47 48 48 49
33 33 33 33 34 34 34 34 34 35 35 34 34 35 35 35 35 36 37 37 38 38 38 38 39 40 41 41 42 42 43 43 44 44 45 45 46 47 47 48 48 49 49
33 33 34 34 34 34 35 35 35 35 35 35 35 35 36 36 37 38 39 39 39 40 40 41 41 41 42 42 43 43 43 44 45 45 46 46 47 48 48 49 50 50 51
34 34 34 34 35 35 35 35 36 36 36 36 36 37 38 38 39 40 40 41 41 41 42 42 42 42 42 43 43 44 44 45 46 46 47 47 48 49 49 50 51 51 52
34 35 35 35 35 35 36 36 37 38 38 38 38 38 38 38 39 41 41 42 42 42 42 42 43 43 44 44 44 45 46 46 47 47 48 48 49 50 50 51 52 52 53
35 35 35 35 35 36 37 38 38 38 39 39 40 40 40 40 40 40 41 42 43 43 43 44 44 45 45 46 46 46 47 47 48 49 49 50 51 51 52 52 53 53 54
35 35 36 36 36 37 38 38 39 39 40 41 41 42 42 43 42 40 41 42 43 44 45 45 46 46 47 47 47 48 48 49 49 50 51 52 52 53 53 54 54 55 55
36 36 37 37 37 38 39 40 40 41 42 42 43 43 44 44 44 43 42 43 44 45 45 46 47 47 48 49 49 50 50 51 51 52 52 53 54 54 55 55 56 56 57
36 37 37 38 39 40 40 41 42 42 43 44 45 45 45 46 46 46 45 45 45 45 46 47 49 49 50 51 51 52 53 53 53 54 54 55 56 56 57 58 58 59 59
37 38 39 39 40 41 41 42 43 44 44 45 46 46 47 47 47 48 48 47 47 47 48 49 50 51 52 52 53 54 54 55 55 56 57 58 59 60 60 61 62 63 63
38 39 40 41 41 42 43 43 44 45 46 47 47 47 48 48 49 50 50 50 50 49 50 50 52 53 53 54 55 56 56 58 58 59 61 62 63 64 64 65 66 67 67
39 40 41 43 44 44 44 44 46 47 48 48 48 48 49 50 51 51 52 53 53 52 51 52 53 54 55 56 57 59 60 61 62 63 64 65 66 67 68 69 70 71 72
40 42 43 44 45 45 45 46 47 48 49 49 50 50 51 51 52 52 54 54 55 56 55 55 56 57 59 60 61 63 64 65 66 67 68 69 71 72 73 74 75 76 77
42 43 43 44 45 46 46 47 49 49 50 50 51 52 52 53 53 55 56 57 58 59 59 58 60 62 63 65 66 67 68 69 70 71 73 74 75 76 77 77 78 79 79
42 43 44 45 46 47 48 49 50 50 51 51 52 53 54 55 56 57 59 60 61 62 64 63 64 66 68 69 70 71 71 72 74 75 76 76 77 78 78 78 78 78 78
43 45 46 46 47 48 49 50 51 51 52 52 54 54 56 57 59 60 62 63 64 66 67 68 68 70 71 72 73 74 74 75 76 77 77 77 77 77 76 76 76 75 75
44 45 46 47 48 49 50 51 52 52 53 54 55 56 58 60 61 63 65 66 68 69 70 72 72 72 72 73 75 75 75 75 76 76 76 76 76 75 75 74 73 72 71
45 45 46 47 48 50 51 52 52 53 54 55 57 59 60 62 64 66 68 69 70 71 72 73 73 73 73 74 75 75 75 74 73 74 74 74 73 72 70 69 68 66 65
45 45 46 48 50 51 52 53 53 54 56 57 59 61 62 65 67 68 69 71 72 73 73 73 73 73 73 73 74 74 74 74 73 72 72 69 68 65 64 62 60 58 56
44 45 47 49 51 51 52 53 55 56 58 59 61 63 65 67 68 70 71 72 72 73 74 74 74 73 73 73 74 73 73 73 71 69 67 63 60 58 56 54 52 50 49
45 47 49 50 51 52 54 55 57 59 60 62 63 65 67 69 70 71 72 73 72 72 73 74 74 73 73 73 74 73 72 70 67 63 61 58 54 52 50 48 46 45 43
46 48 49 50 52 53 55 57 59 60 62 63 66 68 69 70 71 73 73 72 71 71 72 72 73 73 73 72 71 70 67 65 60 55 54 52 49 46 43 41 40 38 36
47 49 50 52 53 55 57 59 61 62 64 66 67 69 70 71 71 72 72 72 72 71 71 71 71 71 69 67 65 63 60 57 53 49 46 45 42 40 35 34 33 32 31
Wind_Direction
292 292 291 292 291 292 293 293 293 293 293 293 292 292 292 291 290 289 288 288 287 286 285 284 284 283 282 281 280 279 278 277 276 275 275 274 273 272 271 270 269 269 268
291 291 291 291 291 292 293 293 293 293 293 293 293 293 292 292 291 290 289 288 287 287 286 285 284 283 282 281 281 280 279 278 277 276 275 274 273 272 272 271 270 269 268
290 291 291 291 291 292 293 293 293 293 293 293 293 293 293 293 292 291 291 289 289 288 288 287 285 284 283 282 281 280 280 279 278 277 276 275 274 273 272 271 271 270 269
290 290 291 291 291 292 293 293 293 293 293 293 293 294 294 293 293 292 292 291 291 289 289 288 287 286 285 284 283 282 281 280 279 278 277 276 275 275 274 273 272 271 270
290 290 290 290 290 291 292 293 293 294 294 294 294 294 294 294 294 293 293 293 292 292 291 290 289 288 286 285 284 283 282 281 280 279 278 277 277 276 275 274 273 272 271
289 289 290 290 291 291 292 293 294 295 295 294 294 295 295 295 295 295 295 294 293 293 292 291 290 289 288 287 286 285 284 283 282 280 279 279 278 277 276 275 274 273 272
288 288 289 291 291 291 292 294 295 295 295 295 295 295 295 296 296 296 295 295 294 294 293 292 291 290 289 288 287 286 285 284 283 282 281 280 279 278 277 276 275 274 273
287 288 289 290 291 292 293 294 295 295 295 295 294 294 295 295 296 296 296 296 295 295 294 293 292 292 291 290 288 287 286 285 284 283 282 281 280 279 278 277 276 275 274
287 288 289 290 290 291 293 294 295 296 296 295 295 295 295 295 295 296 296 295 295 295 295 294 293 292 292 291 290 288 287 286 285 284 283 282 281 281 280 279 277 276 275
286 287 289 289 290 292 293 294 295 296 296 296 296 296 296 296 296 295 296 295 295 295 295 295 294 294 293 292 291 290 289 288 287 286 285 284 283 282 281 280 279 277 276
286 287 288 289 290 292 293 294 295 296 296 297 297 297 297 297 297 297 296 296 296 296 295 295 294 294 293 292 291 290 290 289 288 287 286 285 284 283 282 281 280 279 278
286 287 287 289 290 292 293 294 296 296 297 297 297 298 298 298 298 298 297 297 296 296 296 295 294 294 293 292 292 291 290 289 288 287 286 285 284 284 283 282 281 279 278
286 287 288 289 290 292 294 295 296 297 297 298 298 298 299 299 299 299 298 297 297 296 296 296 295 294 293 293 292 291 290 289 289 288 287 286 285 284 283 282 281 280 279
286 287 288 289 291 293 294 296 296 297 298 298 299 299 299 299 299 299 299 298 297 297 297 296 295 294 294 293 292 291 290 289 288 288 287 286 285 285 283 282 281 280 279
286 287 288 289 291 293 295 296 297 297 298 299 299 299 299 300 300 299 299 299 298 298 297 296 296 295 294 293 293 292 291 290 289 288 287 287 286 285 284 283 282 281 279
286 287 289 291 293 294 295 296 298 298 299 299 299 299 300 300 300 300 300 300 299 299 298 297 296 295 295 294 294 293 292 291 290 289 288 287 286 286 285 284 283 281 280
287 289 290 292 293 295 296 297 298 298 299 300 300 300 300 300 300 300 300 300 300 299 299 298 298 297 296 295 294 293 292 292 291 290 290 289 288 287 286 284 283 281 280
289 290 291 293 294 295 296 297 298 299 300 300 300 300 301 301 301 301 301 301 300 300 300 299 298 297 296 295 294 294 293 292 292 291 290 290 289 288 287 286 284 282 280
289 290 292 293 295 296 296 297 298 299 300 300 300 301 301 301 302 301 301 301 301 300 300 299 299 298 297 296 295 294 294 293 292 292 291 290 290 289 288 287 285 284 282
290 291 292 294 296 297 297 298 299 300 300 301 301 302 302 302 302 302 302 301 301 301 300 300 299 299 298 297 296 296 295 295 294 293 292 291 290 289 289 287 286 284 283
291 292 293 295 296 297 298 299 299 300 301 301 302 302 302 302 303 303 302 302 302 302 301 301 300 300 299 298 298 297 296 296 295 294 293 292 291 290 289 288 287 285 283
293 293 295 296 297 298 299 299 300 301 301 302 302 302 302 303 303 303 303 303 303 303 302 302 301 301 300 299 299 298 298 297 296 295 294 293 292 291 290 288 287 285 284
293 295 296 297 298 299 299 300 301 301 302 302 303 303 304 304 304 304 304 304 304 303 303 303 302 302 301 301 300 300 299 298 298 297 294 294 292 292 290 289 287 286 284
295 296 297 298 299 300 300 301 301 302 303 303 304 304 305 305 305 304 304 304 304 304 303 303 303 303 302 302 301 300 299 299 299 297 295 294 293 292 290 288 286 285 284
296 297 298 299 300 300 301 301 302 303 304 305 305 306 306 306 305 305 305 305 305 304 303 303 303 303 303 302 302 301 301 300 300 298 296 296 294 292 290 288 285 284 282
297 298 299 300 300 301 302 302 303 304 305 306 306 307 307 306 306 306 306 306 306 305 304 304 304 304 304 303 302 302 302 301 301 300 298 297 295 293 291 288 284 282 281
Height
5833 5831 5830 5828 5827 5825 5823 5822 5820 5819 5817 5815 5813 5811 5809 5807 5805 5803 5802 5800 5798 5796 5794 5792 5790 5789 5787 5786 5784 5783 5781 5780 5779 5778 5777 5776 5775 5775 5774 5774 5774 5774 5774
5827 5825 5824 5822 5821 5819 5817 5815 5814 5812 5810 5808 5806 5804 5802 5800 5798 5796 5794 5792 5790 5788 5786 5784 5782 5780 5778 5777 5775 5774 5772 5771 5769 5768 5767 5766 5765 5765 5764 5763 5763 5763 5763
5821 5819 5817 5816 5814 5812 5810 5809 5807 5805 5803 5801 5799 5797 5795 5792 5790 5788 5786 5785 5783 5780 5778 5776 5773 5772 5770 5768 5766 5764 5762 5761 5759 5758 5757 5756 5755 5754 5753 5752 5752 5752 5751
5814 5813 5811 5809 5807 5805 5804 5802 5800 5798 5796 5794 5792 5789 5787 5785 5783 5780 5778 5776 5774 5772 5769 5767 5764 5762 5760 5758 5756 5754 5752 5750 5749 5747 5746 5745 5744 5743 5742 5741 5740 5740 5740
5808 5806 5804 5802 5800 5798 5797 5795 5793 5791 5789 5786 5784 5782 5780 5777 5775 5772 5770 5767 5765 5762 5760 5758 5755 5752 5750 5748 5745 5743 5741 5739 5738 5736 5735 5733 5732 5731 5730 5729 5728 5728 5727
5801 5799 5797 5795 5793 5791 5789 5787 5785 5783 5781 5779 5777 5774 5771 5769 5766 5763 5761 5758 5755 5753 5750 5748 5745 5742 5740 5737 5734 5732 5730 5728 5726 5725 5723 5721 5720 5719 5718 5717 5716 5715 5715
5794 5792 5790 5788 5786 5784 5782 5779 5777 5775 5773 5771 5769 5766 5763 5760 5757 5754 5751 5748 5745 5743 5740 5737 5734 5732 5729 5726 5723 5721 5718 5716 5714 5712 5711 5709 5707 5706 5705 5704 5703 5702 5701
5786 5784 5783 5780 5778 5776 5774 5772 5769 5767 5764 5762 5760 5758 5755 5753 5749 5745 5741 5738 5735 5732 5729 5726 5723 5720 5718 5715 5712 5709 5706 5704 5702 5700 5698 5696 5694 5693 5691 5690 5689 5688 5687
5779 5777 5775 5773 5770 5768 5766 5764 5761 5758 5756 5753 5750 5748 5745 5743 5741 5737 5732 5728 5725 5721 5718 5715 5712 5709 5706 5703 5700 5697 5694 5692 5689 5687 5684 5682 5680 5679 5677 5675 5674 5673 5672
5771 5769 5767 5765 5762 5760 5758 5755 5752 5750 5747 5744 5741 5738 5735 5732 5729 5728 5724 5719 5715 5711 5708 5704 5700 5697 5694 5690 5687 5684 5681 5678 5675 5673 5670 5668 5666 5664 5662 5660 5659 5658 5657
5763 5761 5759 5756 5754 5752 5749 5746 5744 5741 5738 5735 5731 5728 5724 5721 5717 5715 5713 5709 5705 5700 5696 5692 5689 5685 5681 5678 5674 5671 5667 5664 5661 5659 5656 5653 5651 5649 5646 5645 5643 5642 5641
5755 5752 5750 5748 5745 5743 5740 5737 5734 5731 5728 5725 5721 5717 5714 5710 5706 5703 5700 5697 5694 5690 5685 5680 5676 5672 5668 5665 5661 5657 5653 5650 5646 5643 5640 5638 5635 5632 5630 5628 5626 5624 5623
5746 5744 5741 5739 5737 5734 5731 5728 5725 5721 5718 5714 5710 5707 5702 5698 5695 5691 5687 5684 5682 5678 5674 5668 5663 5659 5655 5650 5646 5642 5639 5635 5631 5628 5624 5621 5618 5615 5612 5610 5608 5606 5604
5738 5735 5732 5730 5727 5724 5721 5718 5715 5711 5707 5704 5700 5695 5691 5687 5682 5678 5674 5671 5668 5665 5661 5656 5650 5645 5640 5636 5632 5628 5623 5619 5615 5611 5607 5603 5600 5596 5593 5591 5588 5586 5584
5729 5726 5723 5720 5718 5714 5711 5708 5704 5701 5697 5692 5688 5684 5679 5675 5670 5665 5661 5656 5653 5650 5648 5642 5636 5631 5625 5621 5616 5612 5607 5602 5598 5593 5588 5584 5580 5576 5572 5569 5566 5564 5561
5719 5716 5714 5711 5708 5704 5701 5697 5694 5690 5685 5681 5676 5672 5667 5662 5657 5652 5647 5643 5637 5633 5631 5628 5621 5615 5609 5604 5599 5594 5589 5583 5578 5573 5568 5563 5559 5554 5550 5546 5542 5539 5536
5710 5707 5704 5701 5697 5694 5690 5686 5682 5678 5674 5669 5664 5659 5654 5649 5644 5639 5633 5628 5623 5617 5614 5612 5605 5598 5592 5586 5580 5574 5569 5563 5557 5551 5546 5540 5535 5529 5525 5520 5516 5512 5509
5700 5697 5694 5690 5687 5683 5679 5675 5671 5666 5662 5657 5651 5646 5641 5635 5630 5624 5618 5613 5607 5600 5595 5593 5588 5580 5573 5566 5560 5554 5547 5541 5535 5529 5522 5516 5510 5504 5498 5493 5488 5484 5480
5690 5687 5684 5680 5676 5672 5668 5663 5659 5654 5649 5644 5639 5633 5627 5621 5616 5609 5603 5597 5590 5583 5576 5571 5568 5560 5553 5544 5537 5531 5524 5518 5511 5504 5498 5491 5485 5478 5472 5466 5461 5457 5453
5680 5676 5673 5669 5665 5661 5656 5651 5647 5642 5637 5631 5625 5619 5613 5606 5600 5593 5587 5580 5572 5565 5558 5551 5545 5539 5531 5522 5514 5507 5502 5495 5488 5480 5473 5466 5460 5454 5448 5441 5436 5432 5428
5669 5666 5662 5658 5653 5649 5644 5639 5634 5629 5624 5618 5612 5605 5598 5591 5584 5576 5569 5562 5553 5546 5538 5530 5524 5517 5510 5500 5491 5483 5477 5472 5465 5455 5448 5443 5436 5430 5424 5417 5412 5408 5405
5659 5655 5651 5647 5642 5637 5632 5627 5621 5616 5610 5604 5598 5591 5583 5575 5567 5559 5551 5543 5534 5525 5517 5509 5502 5495 5487 5478 5469 5461 5453 5447 5443 5436 5425 5421 5413 5408 5402 5397 5392 5388 5385
5648 5644 5640 5635 5630 5625 5619 5614 5608 5602 5596 5589 5582 5575 5567 5559 5550 5542 5534 5525 5516 5506 5496 5488 5481 5473 5465 5457 5447 5440 5431 5423 5418 5410 5402 5399 5393 5388 5383 5378 5374 5371 5368
5637 5633 5628 5623 5618 5612 5606 5600 5594 5588 5581 5574 5566 5558 5550 5542 5532 5523 5515 5507 5498 5488 5477 5468 5460 5453 5444 5435 5425 5417 5409 5403 5398 5390 5381 5378 5375 5370 5367 5362 5358 5356 5354
5626 5621 5616 5611 5605 5599 5593 5586 5579 5573 5566 5559 5550 5541 5532 5524 5515 5504 5496 5488 5480 5470 5459 5450 5441 5432 5423 5414 5403 5395 5388 5381 5378 5373 5365 5360 5357 5354 5352 5348 5345 5342 5341
5614 5609 5604 5598 5592 5586 5579 5571 5564 5558 5551 5544 5535 5525 5515 5505 5496 5485 5476 5468 5460 5451 5441 5432 5423 5413 5404 5395 5386 5377 5370 5364 5359 5356 5351 5346 5343 5339 5339 5337 5334 5332 5331